Flag for Mexico Weather past 2 weeks in Ojinaga, Chihuahua, Mexico

57 °F

Passing clouds.

Feels Like: 55 °F
Forecast: 68 / 75 °F
Wind: 10 mph from Northeast

Location: Marfa Municipal Airport

Current Time: Oct 4, 2015 at 3:23:15 AM

Latest Report: Oct 4, 2015 at 2:55 AM

Visibility: 10 mi

Pressure: 30.00 "Hg (27.31 "Hg at 788m altitude)

Humidity: 88%

Dew point: 54 °F

Location of OjinagaLocation

Historic Weather in Ojinaga — Graph


Ojinaga temperature yesterday

Maximum temperature yesterday: 84 °F (at 2:15 PM)
Minimum temperature yesterday: 59 °F (at 5:55 AM)
Average temperature yesterday: 71 °F

Past Weeks' High & Low Weather Summary

High88 °F (Oct 1, 2:55 PM)100% (Sep 21, 6:55 PM)30.33 "Hg (Sep 21, 6:55 PM)
Low48 °F (Sep 27, 4:35 AM)22% (Oct 1, 2:55 PM)29.86 "Hg (Oct 3, 4:35 PM)
Average67 °F65%30.15 "Hg
* Reported Sep 19 2:15 AM — Oct 4 2:15 AM, Ojinaga, Weather by CustomWeather, © 2015

Note: Actual official high and low records may vary slightly from our data, if they occured in-between our weather recording intervals... More about our weather records


Ojinaga weather history for previous 24 hours

Time TempWeatherWind HumidityBarometerVisibility
2:15 AM
Sun, Oct 4
57 °FPassing clouds.14 mph88%30.00 "Hg10 mi
1:55 AM59 °FClear.14 mph82%30.00 "Hg10 mi
1:35 AM59 °FPassing clouds.16 mph82%30.00 "Hg10 mi
1:15 AM61 °FMostly cloudy.17 mph77%30.00 "Hg10 mi
12:55 AM63 °FMostly cloudy.13 mph73%30.00 "Hg10 mi
12:35 AM64 °FOvercast.15 mph68%30.00 "Hg10 mi
12:15 AM64 °FOvercast.9 mph68%29.99 "Hg10 mi
11:55 PM
Sat, Oct 3
64 °FPassing clouds.6 mph68%29.98 "Hg10 mi
11:35 PM64 °FPassing clouds.5 mph68%29.98 "Hg10 mi
11:15 PM64 °FClear.No wind68%29.97 "Hg10 mi
10:35 PM66 °FPassing clouds.10 mph68%29.95 "Hg10 mi
10:15 PM68 °FPassing clouds.6 mph60%29.95 "Hg10 mi
9:55 PM70 °FPassing clouds.10 mph57%29.94 "Hg10 mi
9:35 PM68 °FClear.14 mph60%29.92 "Hg10 mi
9:15 PM70 °FClear.16 mph57%29.91 "Hg10 mi
8:55 PM70 °FClear.14 mph57%29.91 "Hg10 mi
8:35 PM70 °FClear.13 mph57%29.90 "Hg10 mi
8:15 PM72 °FPassing clouds.15 mph53%29.89 "Hg10 mi
7:55 PM72 °FPassing clouds.15 mph53%29.89 "Hg10 mi
7:35 PM73 °FSunny.14 mph47%29.89 "Hg10 mi
7:15 PM73 °FSunny.12 mph44%29.89 "Hg10 mi
6:55 PM75 °FSunny.15 mph39%29.88 "Hg10 mi
6:35 PM77 °FSunny.16 mph36%29.88 "Hg10 mi
6:15 PM79 °FSunny.16 mph34%29.88 "Hg10 mi
5:55 PM81 °FSunny.15 mph30%29.87 "Hg10 mi
5:35 PM81 °FSunny.15 mph30%29.87 "Hg10 mi
5:15 PM82 °FSunny.18 mph28%29.87 "Hg10 mi
4:55 PM82 °FSunny.14 mph30%29.86 "Hg10 mi
4:35 PM84 °FSunny.15 mph29%29.86 "Hg10 mi
3:15 PM84 °FPassing clouds.8 mph31%29.87 "Hg10 mi
2:55 PM84 °FPassing clouds.14 mph33%29.88 "Hg10 mi
2:35 PM84 °FSunny.12 mph33%29.89 "Hg10 mi
2:15 PM84 °FSunny.13 mph33%29.90 "Hg10 mi
1:55 PM82 °FSunny.12 mph35%29.91 "Hg10 mi
1:35 PM82 °FSunny.15 mph37%29.92 "Hg10 mi
1:15 PM82 °FSunny.10 mph37%29.93 "Hg10 mi
12:55 PM81 °FSunny.14 mph39%29.94 "Hg10 mi
12:35 PM81 °FSunny.14 mph39%29.95 "Hg10 mi
12:15 PM77 °FPassing clouds.9 mph42%29.96 "Hg10 mi
11:55 AM79 °FPassing clouds.10 mph42%29.97 "Hg10 mi
11:35 AM75 °FSunny.9 mph47%29.97 "Hg10 mi
11:15 AM75 °FSunny.10 mph47%29.98 "Hg10 mi
10:55 AM73 °FSunny.9 mph50%29.98 "Hg10 mi
10:35 AM72 °FSunny.9 mph53%29.99 "Hg10 mi
10:15 AM72 °FPassing clouds.10 mph53%29.99 "Hg10 mi
9:55 AM72 °FPartly sunny.10 mph53%30.00 "Hg10 mi
9:35 AM70 °FOvercast.7 mph57%30.00 "Hg10 mi
9:15 AM68 °FMostly cloudy.5 mph60%30.00 "Hg10 mi
8:55 AM68 °FPartly sunny.10 mph60%29.99 "Hg10 mi
8:35 AM66 °FScattered clouds.6 mph68%29.99 "Hg10 mi
8:15 AM64 °FSunny.6 mph73%29.99 "Hg10 mi
7:55 AM64 °FSunny.No wind73%29.99 "Hg10 mi
7:35 AM63 °FClear.No wind73%29.98 "Hg10 mi
7:15 AM61 °FClear.No wind77%29.98 "Hg10 mi
6:55 AM61 °FClear.No wind77%29.97 "Hg10 mi
6:35 AM61 °FClear.No wind77%29.98 "Hg10 mi
6:15 AM61 °FClear.No wind77%29.97 "Hg10 mi
5:55 AM59 °FClear.No wind82%29.98 "Hg10 mi
5:35 AM61 °FClear.3 mph77%29.97 "Hg10 mi
5:15 AM61 °FClear.No wind77%29.98 "Hg10 mi
4:55 AM61 °FClear.3 mph77%29.97 "Hg10 mi
4:35 AM61 °FClear.3 mph77%29.97 "Hg10 mi
4:15 AM61 °FClear.No wind77%29.98 "Hg10 mi
3:55 AM61 °FClear.No wind77%29.98 "Hg10 mi
Weather by CustomWeather, © 2015

See weather overviewHow to use our weather pages